[[{"header":{"parameterUnit":"m.s-1","parameterCategory":1,"la1":30.2991,"la2":30.254,"lo1":-89.0895,"lo2":-89.0444,"dy":0.0017,"dx":0.0017,"nx":28,"ny":28,"refTime":"2024-02-10T09:00:00:Z","depth":0,"parameterNumber":2,"parameterNumberName":"U-component_of_WINDS"},"data":[0,0,0,0,0,0,0,0,0,0,0,0,0,0,0,0,0,0,0,0,0,0,0,0,0,0,0,0,0,0,0,0,0,0,0,0,0,0,0,0,0,0,0,0,0,0,0,0,0,0,0,0,0,0,0,0,0,0,-0.7586,-0.7586,0,-0.7602,-0.7602,-0.7602,-0.7602,-0.7602,-0.7602,-0.7601,-0.7619,-0.762,-0.7621,0,0,0,0,0,0,0,0,0,0,0,0,0,-0.7559,-0.756,-0.7586,-0.7586,-0.7586,-0.7602,-0.7602,-0.7602,-0.7602,-0.7602,-0.7602,-0.7601,-0.7619,-0.762,-0.7621,0,0,0,0,0,0,0,0,0,0,0,0,0,-0.7573,-0.756,-0.7586,-0.7588,-0.7589,-0.7602,-0.7602,-0.7602,-0.7602,-0.7602,-0.7602,-0.7601,-0.7619,-0.762,-0.7621,-0.7633,0,0,-0.7624,-0.7624,0,0,0,0,0,0,0,0,-0.7572,-0.7574,-0.7588,-0.7588,-0.7589,-0.76,-0.7599,-0.7613,-0.7602,-0.7597,-0.7601,-0.7601,-0.7613,-0.7615,-0.7618,-0.7634,-0.7635,-0.7624,-0.7624,-0.7625,-0.7625,0,0,0,0,0,0,0,-0.7571,-0.7573,-0.7592,-0.7588,-0.7588,-0.7589,-0.7591,-0.7602,-0.7607,-0.7597,-0.7598,-0.7599,-0.7613,-0.7617,-0.7619,-0.7635,-0.7624,-0.7625,-0.7625,-0.7626,-0.7664,-0.7664,0,0,0,0,0,0,-0.7569,-0.7572,-0.7592,-0.7593,-0.7579,-0.759,-0.7592,-0.7596,-0.7607,-0.7608,-0.76,-0.7599,-0.7616,-0.7617,-0.7619,-0.7635,-0.7625,-0.7626,-0.7626,-0.7663,-0.7664,-0.7664,0,0,0,0,0,0,-0.7569,-0.7571,-0.7591,-0.7582,-0.7585,-0.7591,-0.7596,-0.7597,-0.7601,-0.7608,-0.7609,-0.7602,-0.7615,-0.7618,-0.763,-0.7636,-0.7626,-0.7627,-0.7663,-0.7663,-0.7664,-0.7666,0,0,0,0,0,0,-0.7568,-0.7571,-0.7575,-0.7583,-0.7586,-0.7601,-0.7596,-0.7597,-0.7602,-0.7602,-0.7611,-0.7612,-0.7615,-0.7628,-0.7631,-0.7637,-0.7628,-0.7662,-0.7663,-0.7664,-0.7666,-0.7667,-0.7668,0,0,0,0,0,-0.7567,-0.7575,-0.7575,-0.7577,-0.759,-0.7601,-0.7603,-0.7605,-0.7603,-0.7607,-0.7612,-0.7612,-0.7635,-0.763,-0.7632,-0.7639,-0.7662,-0.7663,-0.7664,-0.7665,-0.7667,-0.7668,0,0,0,0,0,0,-0.7567,-0.7576,-0.7576,-0.7586,-0.7593,-0.7601,-0.7606,-0.7607,-0.7615,-0.7614,-0.7618,-0.762,-0.7632,-0.7637,-0.7631,-0.7652,-0.7648,-0.765,-0.7648,-0.765,-0.7651,-0.7649,-0.7629,0,0,0,0,0,-0.7569,-0.7576,-0.7583,-0.7592,-0.7595,-0.76,-0.7605,-0.7607,-0.7614,-0.7617,-0.7622,-0.763,-0.7639,-0.7645,-0.7654,-0.7667,-0.767,-0.7673,-0.7674,-0.7675,-0.7676,-0.7685,-0.7686,-0.7667,-0.7667,-0.7667,0,0,-0.7571,-0.7577,-0.7581,-0.7592,-0.7597,-0.7605,-0.7602,-0.7611,-0.7617,-0.7618,-0.763,-0.7635,-0.7644,-0.7657,-0.7663,-0.7661,-0.7682,-0.7676,-0.7677,-0.7677,-0.7686,-0.7688,-0.7689,-0.7668,-0.7668,-0.7668,0,0,-0.758,-0.7585,-0.7593,-0.7599,-0.7607,-0.761,-0.7613,-0.7621,-0.7624,-0.7636,-0.7637,-0.7646,-0.7661,-0.7667,-0.7673,-0.7687,-0.7687,-0.769,-0.7695,-0.7703,-0.7705,-0.7706,-0.7712,-0.7714,-0.7691,-0.7691,-0.7691,0,-0.7583,-0.7594,-0.7597,-0.7606,-0.7611,-0.7613,-0.7621,-0.7627,-0.7638,-0.7642,-0.764,-0.766,-0.7666,-0.7681,-0.7685,-0.7689,-0.7692,-0.7688,-0.7704,-0.7706,-0.7707,-0.7712,-0.7714,-0.7691,-0.7691,-0.7691,-0.7691,0,-0.7597,-0.7605,-0.7611,-0.7621,-0.7627,-0.7635,-0.7641,-0.7647,-0.7649,-0.7654,-0.7667,-0.7675,-0.7685,-0.769,-0.7692,-0.7706,-0.7704,-0.7703,-0.7699,-0.7709,-0.7714,-0.7716,-0.7692,-0.7691,-0.7691,-0.7691,0,0,-0.7605,-0.7618,-0.762,-0.7625,-0.7635,-0.7641,-0.7651,-0.7661,-0.7667,-0.7675,-0.7684,-0.7698,-0.7698,-0.7704,-0.7707,-0.7714,-0.7726,-0.7713,-0.7713,-0.7715,-0.7743,-0.7743,-0.7745,-0.7727,-0.7727,-0.7728,-0.7742,0,-0.7615,-0.763,-0.7635,-0.7649,-0.7657,-0.766,-0.7668,-0.7676,-0.7681,-0.769,-0.7696,-0.7706,-0.7704,-0.7708,-0.7716,-0.7723,-0.7731,-0.7722,-0.7736,-0.7736,-0.7732,-0.7748,-0.7747,-0.776,-0.7744,-0.7744,-0.7745,0,-0.7628,-0.7636,-0.765,-0.766,-0.7664,-0.7671,-0.7682,-0.769,-0.77,-0.7703,-0.7711,-0.7714,-0.7726,-0.7722,-0.7739,-0.7733,-0.7739,-0.7744,-0.7744,-0.7745,-0.774,-0.7748,-0.7765,-0.7766,-0.7748,-0.7747,-0.7747,0,-0.7632,-0.7647,-0.7657,-0.7662,-0.7674,-0.7679,-0.7685,-0.7694,-0.7701,-0.7711,-0.7715,-0.7727,-0.7733,-0.7742,-0.7749,-0.7746,-0.7766,-0.7762,-0.777,-0.7769,-0.7773,-0.7772,-0.779,-0.7778,-0.7778,-0.7778,-0.7778,0,-0.7642,-0.7651,-0.766,-0.7666,-0.7677,-0.7683,-0.7693,-0.7699,-0.7708,-0.7717,-0.7721,-0.7729,-0.7738,-0.7748,-0.7754,-0.7768,-0.7771,-0.7774,-0.7776,-0.7774,-0.7773,-0.7777,-0.7776,-0.7778,-0.7778,-0.7778,-0.7778,0,-0.7648,-0.7654,-0.7666,-0.7677,-0.768,-0.7687,-0.7697,-0.7705,-0.7711,-0.7722,-0.7725,-0.7735,-0.7747,-0.7755,-0.7771,-0.7775,-0.779,-0.7792,-0.7786,-0.7787,-0.7794,-0.7793,-0.7814,-0.7817,-0.7803,-0.7804,-0.7804,0,-0.7653,-0.766,-0.7672,-0.7678,-0.7683,-0.7693,-0.7699,-0.7706,-0.7713,-0.7726,-0.7732,-0.7745,-0.7755,-0.7775,-0.7784,-0.7797,-0.7799,-0.7805,-0.78,-0.7799,-0.7799,-0.7798,-0.7799,-0.7805,-0.7806,-0.7806,-0.7806,0,-0.7663,-0.7666,-0.7674,-0.7685,-0.7693,-0.7702,-0.771,-0.7715,-0.7724,-0.7732,-0.7745,-0.7753,-0.7769,-0.7782,-0.7796,-0.7803,-0.7807,-0.7808,-0.781,-0.7807,-0.7804,-0.7806,-0.7788,-0.7807,-0.7807,-0.7806,-0.7806,-0.7806,-0.7668,-0.7675,-0.7684,-0.7695,-0.7702,-0.7711,-0.7718,-0.7726,-0.7736,-0.7749,-0.7753,-0.7766,-0.7778,-0.7797,-0.7805,-0.7817,-0.7816,-0.7819,-0.782,-0.7821,-0.7821,-0.7803,-0.7819,-0.7819,-0.7819,-0.7819,-0.7819,0,-0.7678,-0.7684,-0.7694,-0.7706,-0.7715,-0.7717,-0.7727,-0.7734,-0.7746,-0.7756,-0.7766,-0.7781,-0.7794,-0.7806,-0.7819,-0.7827,-0.7829,-0.783,-0.7829,-0.7831,-0.782,-0.7817,-0.7828,-0.7828,-0.7828,-0.7828,-0.7828,-0.7828,-0.7684,-0.7695,-0.77,-0.7716,-0.7723,-0.7735,-0.7741,-0.7749,-0.7758,-0.7774,-0.7784,-0.7792,-0.7803,-0.7818,-0.7831,-0.7834,-0.7839,-0.784,-0.7843,-0.7833,-0.7832,-0.7831,-0.7827,-0.7841,-0.7841,-0.7853,-0.7853,-0.7853]},{"header":{"parameterUnit":"m.s-1","parameterCategory":1,"la1":30.2991,"la2":30.254,"lo1":-89.0895,"lo2":-89.0444,"dy":0.0017,"dx":0.0017,"nx":28,"ny":28,"refTime":"2024-02-10T09:00:00:Z","depth":0,"parameterNumber":3,"parameterNumberName":"V-component_of_WINDS"},"data":[0,0,0,0,0,0,0,0,0,0,0,0,0,0,0,0,0,0,0,0,0,0,0,0,0,0,0,0,0,0,0,0,0,0,0,0,0,0,0,0,0,0,0,0,0,0,0,0,0,0,0,0,0,0,0,0,0,0,2.2374,2.2375,0,2.2487,2.2488,2.2489,2.2516,2.2515,2.2515,2.2514,2.2627,2.2631,2.2634,0,0,0,0,0,0,0,0,0,0,0,0,0,2.2181,2.2185,2.2374,2.2376,2.2377,2.2486,2.2488,2.249,2.2516,2.2515,2.2514,2.2514,2.2626,2.263,2.2635,0,0,0,0,0,0,0,0,0,0,0,0,0,2.2276,2.2186,2.2374,2.2404,2.2407,2.2486,2.2488,2.249,2.2516,2.2515,2.2514,2.2513,2.2624,2.263,2.2635,2.2692,0,0,2.2652,2.2655,0,0,0,0,0,0,0,0,2.2271,2.2283,2.2398,2.2402,2.2406,2.2486,2.2462,2.2558,2.2517,2.2475,2.2514,2.2513,2.2581,2.259,2.2614,2.2698,2.2702,2.2653,2.2656,2.2659,2.266,0,0,0,0,0,0,0,2.2264,2.2279,2.2419,2.2399,2.2404,2.2411,2.2423,2.248,2.2533,2.2478,2.2481,2.2494,2.2583,2.2608,2.2616,2.2704,2.2653,2.2658,2.2661,2.2663,2.2841,2.2842,0,0,0,0,0,0,2.2253,2.2273,2.2415,2.2422,2.2334,2.2415,2.2429,2.2462,2.2532,2.2542,2.2495,2.2495,2.2599,2.261,2.2621,2.2693,2.2659,2.2664,2.2667,2.284,2.2841,2.2843,0,0,0,0,0,0,2.2248,2.2265,2.2411,2.2348,2.2367,2.242,2.2456,2.2464,2.249,2.2545,2.2554,2.2511,2.2599,2.2613,2.2675,2.2697,2.2666,2.2671,2.2838,2.284,2.2842,2.2837,0,0,0,0,0,0,2.2243,2.2263,2.2286,2.2349,2.237,2.2463,2.2458,2.2467,2.2499,2.25,2.2562,2.2571,2.2599,2.2666,2.268,2.2704,2.2676,2.2836,2.2839,2.2841,2.2836,2.2839,2.2842,0,0,0,0,0,2.2236,2.228,2.2287,2.2304,2.24,2.2464,2.2477,2.2509,2.2501,2.2524,2.2559,2.2569,2.2692,2.2672,2.2688,2.2714,2.2835,2.2838,2.2841,2.2835,2.2839,2.2842,0,0,0,0,0,0,2.2218,2.2288,2.2297,2.2363,2.2408,2.2469,2.2499,2.2512,2.2559,2.2558,2.2594,2.2608,2.2668,2.2697,2.2674,2.2773,2.2763,2.277,2.2753,2.2757,2.276,2.2752,2.268,0,0,0,0,0,2.2222,2.2269,2.2327,2.2379,2.2402,2.2446,2.2476,2.2496,2.2544,2.2563,2.2602,2.2648,2.2697,2.2728,2.2776,2.2839,2.2854,2.2865,2.2868,2.287,2.2876,2.2913,2.2919,2.2853,2.2853,2.2853,0,0,2.223,2.2274,2.2301,2.2377,2.2414,2.2462,2.2462,2.2512,2.2548,2.257,2.2632,2.2662,2.2715,2.2778,2.2808,2.2804,2.2897,2.2874,2.2876,2.2881,2.2917,2.2923,2.2929,2.2855,2.2855,2.2854,0,0,2.227,2.2307,2.2356,2.2393,2.2449,2.2479,2.249,2.255,2.2571,2.2633,2.2651,2.2693,2.2776,2.2814,2.2844,2.2897,2.2908,2.2911,2.2928,2.2963,2.2969,2.2973,2.2994,2.3001,2.2917,2.2917,2.2917,0,2.2273,2.2346,2.2378,2.2429,2.2462,2.2484,2.2533,2.2567,2.2636,2.2658,2.2653,2.2758,2.2795,2.2868,2.2881,2.2904,2.2918,2.2906,2.2965,2.297,2.2975,2.2995,2.3003,2.2917,2.2917,2.2917,2.2917,0,2.2348,2.2398,2.243,2.2497,2.2533,2.2583,2.2622,2.2655,2.2672,2.2701,2.2765,2.281,2.2868,2.2886,2.2902,2.2961,2.2957,2.2958,2.2949,2.2981,2.3001,2.3009,2.2917,2.2917,2.2917,2.2917,0,0,2.2381,2.2465,2.2476,2.2508,2.2571,2.2611,2.266,2.2718,2.2746,2.2791,2.2835,2.2905,2.2906,2.294,2.296,2.2991,2.3032,2.2988,2.299,2.2996,2.3101,2.3101,2.311,2.3039,2.3041,2.3042,2.3097,0,2.243,2.2521,2.2552,2.2627,2.2675,2.2696,2.274,2.2783,2.2812,2.2856,2.2887,2.2937,2.2934,2.2955,2.2986,2.3021,2.3054,2.3017,2.308,2.3082,2.3069,2.312,2.312,2.317,2.3105,2.3106,2.3107,0,2.25,2.2548,2.2629,2.2687,2.2708,2.2747,2.2802,2.2844,2.2893,2.2912,2.295,2.2968,2.3021,2.3007,2.308,2.3054,2.3082,2.3102,2.3105,2.3114,2.3098,2.3131,2.3187,2.3195,2.3119,2.3118,2.3117,0,2.2518,2.2603,2.2663,2.2688,2.2757,2.2784,2.2814,2.2862,2.2895,2.2943,2.2964,2.3017,2.3046,2.3086,2.3118,2.3105,2.3189,2.3177,2.3206,2.3206,2.3225,2.3224,2.3287,2.3239,2.3239,2.3239,2.3239,0,2.2571,2.262,2.2672,2.2709,2.2764,2.2798,2.2852,2.2883,2.2925,2.2968,2.2989,2.3028,2.3067,2.3112,2.3137,2.3194,2.3207,2.3224,2.323,2.3223,2.3221,2.3243,2.3241,2.3241,2.324,2.324,2.324,0,2.2602,2.2639,2.2705,2.2765,2.2781,2.2819,2.287,2.2907,2.2936,2.299,2.3004,2.305,2.3104,2.3139,2.3207,2.3224,2.3287,2.3292,2.3271,2.3275,2.3302,2.33,2.3384,2.3397,2.3338,2.3339,2.3339,0,2.2634,2.2672,2.2736,2.2767,2.2797,2.2846,2.288,2.2914,2.2948,2.3007,2.3036,2.3091,2.3138,2.3222,2.3261,2.3313,2.332,2.3346,2.3328,2.332,2.3323,2.3321,2.3325,2.335,2.335,2.335,2.3351,0,2.2688,2.2704,2.2753,2.2807,2.2847,2.2891,2.2936,2.2959,2.3001,2.3038,2.3094,2.313,2.32,2.3254,2.331,2.334,2.3353,2.3356,2.3366,2.336,2.3347,2.3356,2.3281,2.3354,2.3354,2.3354,2.3353,2.3353,2.2722,2.2758,2.2808,2.2861,2.2898,2.2939,2.2977,2.3011,2.3058,2.3119,2.3135,2.3194,2.3242,2.3318,2.3349,2.3394,2.3392,2.3405,2.3409,2.3413,2.3414,2.3338,2.3404,2.3404,2.3404,2.3404,2.3404,0,2.2779,2.2812,2.2861,2.2923,2.2964,2.2972,2.3022,2.3056,2.3108,2.3152,2.3197,2.3261,2.3314,2.3356,2.3411,2.3439,2.3446,2.3452,2.3452,2.3459,2.3412,2.3399,2.3446,2.3446,2.3446,2.3446,2.3446,2.3446,2.2813,2.2874,2.2896,2.2976,2.3009,2.3067,2.3095,2.3132,2.3168,2.3239,2.3283,2.3311,2.3355,2.3412,2.3461,2.3472,2.3492,2.3497,2.351,2.3466,2.3462,2.3457,2.3445,2.3501,2.3501,2.3553,2.3553,2.3554]}]]